{"data":{"norad_id":59235,"intl_designator":"2024-049E","name":"STARLINK-31467","alt_names":[],"object_type":"PAYLOAD","status":"ACTIVE","operator":null,"country":"US","launch_date":"2024-03-16","launch_site_code":"AFETR","launch_vehicle":null,"mission":null,"orbit_class":"UNKNOWN","rcs_meters":null,"size_class":null,"mass_kg":null,"dimensions":null,"purposes":["comms"],"wikipedia_slug":null,"has_3d_model":false,"image_url":null,"decayed_at":null,"tle_current":{"epoch":"2026-05-25T04:09:37.249056Z","epoch_age_seconds":57315,"freshness":"FRESH","line1":"1 59235U 24049E   26145.17334779  .00000338  00000+0  21802-4 0  9992","line2":"2 59235  43.0017  71.5661 0000710 270.0979  89.9791 15.27573627124105","mean_motion":15.27573627,"eccentricity":7.1e-5,"inclination_deg":43.0017,"raan_deg":71.5661,"arg_perigee_deg":270.0979,"mean_anomaly_deg":89.9791,"bstar":2.1802e-5,"rev_number":12410,"period_min":94.267141992233,"perigee_km":482.58103359295,"apogee_km":483.55532472839,"semimajor_km":6861.2051791607,"source":"CELESTRAK","updated_at":"2026-05-25T13:38:18.869764Z"}}}